Elmira, NY

12:39 PM EDT on March 25, 2017 (GMT -0400)
Elmira-Corning Regional

Weather History for KELM - December, 2012

Change the Weather History Date:

Wednesday, December 26, 2012

  Actual Average Record
Temperature  
Mean Temperature 24 °F -  
Max Temperature 28 °F 33 °F 61 °F (1982)
Min Temperature 21 °F 16 °F -10 °F (1969)
Degree Days  
Heating Degree Days 40    
Moisture  
Dew Point 21 °F    
Average Humidity 82    
Maximum Humidity 93    
Minimum Humidity 63    
Precipitation  
Precipitation 0.32 in - - ()
Sea Level Pressure  
Sea Level Pressure 29.92 in    
Wind  
Wind Speed 8 mph (NE)    
Max Wind Speed 15 mph    
Max Gust Speed -    
Visibility 4 miles    
Events Fog , Snow    
Averages and records for this station are not official NWS values.
T = Trace of Precipitation, MM = Missing Value Source: NWS Daily Summary

Daily Weather History Graph

Daily Weather History Graph

Search for Another Location

Airport or City:

Trip Planner

Search our weather history database for the weather conditions in past years. The results will help you decide how hot, cold, wet, or windy it might be!

Date:

Astronomy

Dec. 26, 2012 Rise Set
Actual Time 7:35 AM EST 4:41 PM EST
Civil Twilight 7:03 AM EST 5:13 PM EST
Nautical Twilight 6:27 AM EST 5:49 PM EST
Astronomical Twilight 5:53 AM EST 6:23 PM EST
Moon 3:34 PM EST (12/26) 5:56 AM EST (12/26)
Length of Visible Light 10h 10m
Length of Day
9h 06m
Waxing Gibbous, 97% of the Moon is Illuminated
Dec 26
Waxing Gibbous
Dec 28
Full
Jan 4
Last Quarter
Jan 11
New
Jan 18
First Quarter

Hourly Weather History & Observations

Time (EST) Temp. Windchill Dew Point Humidity Pressure Visibility Wind Dir Wind Speed Gust Speed Precip Events Conditions
12:53 AM 26.1 °F 19.4 °F 19.0 °F 75% 30.34 in 10.0 mi ENE 5.8 mph - N/A   Overcast
1:53 AM 26.1 °F 17.6 °F 19.0 °F 75% 30.34 in 10.0 mi ENE 8.1 mph - N/A   Overcast
2:53 AM 26.1 °F 20.5 °F 18.0 °F 71% 30.33 in 10.0 mi NE 4.6 mph - N/A   Overcast
3:53 AM 25.0 °F 14.8 °F 18.0 °F 75% 30.30 in 10.0 mi NE 10.4 mph - N/A   Overcast
4:53 AM 23.0 °F 12.4 °F 17.1 °F 78% 30.29 in 10.0 mi ENE 10.4 mph - N/A   Overcast
6:33 AM 21.2 °F 13.6 °F 15.8 °F 80% 30.25 in 10.0 mi ENE 5.8 mph - N/A   Scattered Clouds
6:53 AM 21.0 °F 12.4 °F 15.1 °F 78% 30.27 in 10.0 mi ENE 6.9 mph - N/A   Partly Cloudy
7:53 AM 21.0 °F - 15.1 °F 78% 30.27 in 10.0 mi Calm Calm - N/A   Clear
8:53 AM 21.9 °F 14.5 °F 16.0 °F 78% 30.25 in 10.0 mi ENE 5.8 mph - N/A   Clear
9:53 AM 23.0 °F 15.8 °F 16.0 °F 74% 30.22 in 10.0 mi NE 5.8 mph - N/A   Clear
10:53 AM 23.0 °F 13.9 °F 15.1 °F 72% 30.17 in 10.0 mi ENE 8.1 mph - N/A   Clear
11:53 AM 25.0 °F 18.1 °F 15.1 °F 66% 30.11 in 10.0 mi ENE 5.8 mph - N/A   Mostly Cloudy
12:53 PM 26.1 °F 20.5 °F 15.1 °F 63% 30.09 in 10.0 mi ENE 4.6 mph - N/A   Overcast
1:53 PM 26.1 °F 17.6 °F 16.0 °F 66% 30.04 in 10.0 mi ENE 8.1 mph - N/A   Overcast
2:43 PM 26.6 °F 20.0 °F 15.8 °F 64% 29.99 in 2.5 mi East 5.8 mph - 0.00 in Snow Light Snow
2:47 PM 24.8 °F 17.9 °F 17.6 °F 74% 29.98 in 0.8 mi ENE 5.8 mph - 0.00 in Snow Light Snow
2:53 PM 25.0 °F 16.3 °F 18.0 °F 75% 30.02 in 0.5 mi ENE 8.1 mph - 0.00 in Snow Snow
2:56 PM 24.8 °F 16.9 °F 19.4 °F 80% 29.98 in 0.2 mi ENE 6.9 mph - 0.00 in Snow Heavy Snow
3:09 PM 24.8 °F 16.1 °F 19.4 °F 80% 29.97 in 0.8 mi NE 8.1 mph - 0.01 in Snow Light Snow
3:28 PM 24.8 °F 15.3 °F 19.4 °F 80% 29.96 in 0.8 mi NE 9.2 mph - 0.02 in Snow Light Snow
3:53 PM 24.1 °F 14.4 °F 21.0 °F 88% 29.98 in 0.5 mi NE 9.2 mph - 0.04 in Fog , Snow Snow
4:14 PM 24.8 °F 16.1 °F 21.2 °F 86% 29.92 in 0.2 mi NE 8.1 mph - 0.02 in Fog , Snow Snow
4:21 PM 24.8 °F 15.3 °F 21.2 °F 86% 29.91 in 0.5 mi NE 9.2 mph - 0.03 in Fog , Snow Snow
4:53 PM 25.0 °F 15.5 °F 21.9 °F 88% 29.92 in 0.5 mi NE 9.2 mph - 0.05 in Fog , Snow Snow
5:53 PM 26.1 °F 15.6 °F 23.0 °F 88% 29.88 in 0.5 mi NE 11.5 mph - 0.08 in Fog , Snow Snow
6:21 PM 26.6 °F 16.8 °F 24.8 °F 93% 29.83 in 0.2 mi NE 10.4 mph - 0.04 in Fog , Snow Heavy Snow
6:29 PM 26.6 °F 17.5 °F 24.8 °F 93% 29.83 in 0.5 mi ENE 9.2 mph - 0.05 in Fog , Snow Snow
6:46 PM 26.6 °F 16.8 °F 24.8 °F 93% 29.83 in 0.5 mi ENE 10.4 mph - 0.07 in Fog , Snow Snow
7:35 PM 26.6 °F 15.7 °F 23.0 °F 86% 29.77 in 1.2 mi NE 12.7 mph - 0.03 in Snow Light Snow
7:46 PM 26.6 °F 15.2 °F 23.0 °F 86% 29.76 in 2.0 mi NE 13.8 mph - 0.03 in Snow Light Snow
7:53 PM 27.0 °F 15.2 °F 23.0 °F 85% 29.80 in 2.0 mi NE 15.0 mph - 0.03 in Snow Light Snow
8:18 PM 26.6 °F 15.2 °F 23.0 °F 86% 29.73 in 0.8 mi NE 13.8 mph - 0.00 in Snow Light Snow
8:29 PM 26.6 °F 15.2 °F 24.8 °F 93% 29.73 in 0.5 mi NE 13.8 mph - 0.01 in Fog , Snow Snow
8:39 PM 26.6 °F 15.7 °F 24.8 °F 93% 29.72 in 0.8 mi NE 12.7 mph - 0.01 in Snow Light Snow
8:43 PM 26.6 °F 15.2 °F 24.8 °F 93% 29.71 in 1.0 mi NE 13.8 mph - 0.02 in Snow Light Snow
8:53 PM 27.0 °F 15.2 °F 24.1 °F 89% 29.73 in 1.2 mi NE 15.0 mph - 0.02 in Snow Light Snow
9:00 PM 26.6 °F 15.2 °F 24.8 °F 93% 29.68 in 2.0 mi NE 13.8 mph - 0.00 in Snow Light Snow
9:14 PM 28.4 °F 18.5 °F 24.8 °F 86% 29.69 in 1.5 mi ENE 11.5 mph - 0.01 in Snow Light Snow
9:27 PM 28.4 °F 18.0 °F 24.8 °F 86% 29.69 in 2.5 mi ENE 12.7 mph - 0.02 in Snow Light Snow
9:43 PM 28.4 °F 18.0 °F 24.8 °F 86% 29.67 in 1.5 mi NE 12.7 mph - 0.03 in Snow Light Snow
9:53 PM 28.0 °F 17.0 °F 25.0 °F 88% 29.70 in 1.5 mi NE 13.8 mph - 0.04 in Snow Light Snow
10:05 PM 28.4 °F 18.5 °F 24.8 °F 86% 29.66 in 2.0 mi NE 11.5 mph - 0.00 in Snow Light Snow
10:12 PM 28.4 °F 19.1 °F 24.8 °F 86% 29.67 in 1.5 mi NE 10.4 mph - 0.00 in Snow Light Snow
10:46 PM 28.4 °F 19.1 °F 24.8 °F 86% 29.65 in 2.5 mi NE 10.4 mph - 0.03 in Snow Light Snow
10:53 PM 28.0 °F 20.8 °F 25.0 °F 88% 29.70 in 2.5 mi NE 6.9 mph - 0.04 in Snow Light Snow
11:06 PM 28.4 °F 21.2 °F 24.8 °F 86% 29.65 in 1.2 mi NE 6.9 mph - 0.00 in Snow Light Snow
11:35 PM 28.4 °F 21.2 °F 24.8 °F 86% 29.64 in 2.0 mi NNE 6.9 mph - 0.01 in Snow Light Snow
11:53 PM 28.0 °F 21.7 °F 25.0 °F 88% 29.67 in 2.5 mi NNE 5.8 mph - 0.02 in Snow Light Snow